Hundvaag 1 weather for Oct 1998
Month no. 136
Obs.
Da.
Temp. Dew Point Precip. Wind
Speed
Wind gusts Cloud cover Press. Humidity Wind dir. Sunny OPT
01.10.1998 7,6   0,0     9       1  
02.10.1998 7,0   0,0     10       1  
03.10.1998 7,7   0,0     7       1  
04.10.1998 6,7   0,0     10       1  
05.10.1998 4,4   0,0     10       1  
06.10.1998 3,9   0,0     4       1  
07.10.1998 9,1   0,0     3       1  
08.10.1998 8,7   0,0     1       1  
09.10.1998 9,2   0,0     1          
10.10.1998 10,7   24,0     3       1  
11.10.1998 9,0   0,0     0          
12.10.1998 5,9   15,0     1       1  
13.10.1998 6,7   1,0     0          
14.10.1998 9,8   3,0     0          
15.10.1998 7,2   10,0     0          
16.10.1998 5,4   6,0     5          
17.10.1998 6,6   9,0     0          
18.10.1998 6,1   17,0     3       1  
19.10.1998 6,1   24,0     0       1  
20.10.1998 5,7   11,0     3       1  
21.10.1998 5,7   1,0     0          
22.10.1998 11,1   28,0     0          
23.10.1998 11,7   11,0     0       1  
24.10.1998 5,7   26,0     4       1  
25.10.1998 9,1   3,0     4          
26.10.1998 6,7   13,0     0       1  
27.10.1998 4,2   3,0     1       1  
28.10.1998 4,1   16,0     3       1  
29.10.1998 7,4   14,0     0       1  
30.10.1998 6,3   22,0     0       1  
31.10.1998 6,7   20,0     0       1  
Avrg/Sum 7,2   277,0     2,6       21